Regional Weather Roundup
Issued by NWS Cleveland, OH

Current Version | Previous Version | Text Only | Print | Product List | Glossary On
Versions: 1 2 3 4 5 6 7 8 9 10 11 12 13 14 15 16 17 18 19 20 21 22 23 24 25 26 27 28 29 30 31 32 33 34 35 36 37 38 39 40 41 42 43 44 45 46 47 48 49 50
000 ASUS41 KCLE 111012 RWRCLE OHIO REGIONAL WEATHER ROUNDUP NATIONAL WEATHER SERVICE WILMINGTON, OH 500 AM EST SUN DEC 11 2016 NOTE: "FAIR" INDICATES FEW OR NO CLOUDS BELOW 12,000 FEET WITH NO SIGNIFICANT WEATHER AND/OR OBSTRUCTIONS TO VISIBILITY. OHZ001>008-015>018-024>027-034-035-043-044-111100- NORTHWEST OHIO CITY SKY/WX TMP DP RH WIND PRES REMARKS DEFIANCE LGT SNOW 25 21 85 SE7 30.31F FOG WCI 17 FINDLAY LGT SNOW 25 20 81 SE9 30.32F WCI 15 TOLEDO EXPRESS LGT SNOW 23 23 100 S3 30.32F FOG TOLEDO EXEC LGT SNOW 25 23 92 SE7 30.34F FOG WCI 17 LIMA LGT SNOW 24 22 91 SE9 30.29F FOG WCI 14 $$ OHZ009>014-019>023-028>033-038-089-111100- NORTHEAST OHIO CITY SKY/WX TMP DP RH WIND PRES REMARKS CLE-HOPKINS LGT SNOW 25 20 81 S6 30.40F WCI 18 CLE-LAKEFRONT LGT SNOW 25 21 85 SE9 30.39S FOG WCI 15 CUY CO. ARPT NOT AVBL LORAIN-ELYRIA LGT SNOW 23 19 85 S7 30.38S FOG WCI 15 ASHTABULA CLOUDY 22 19 89 S8 30.39F WCI 12 AKRON-CANTON LGT SNOW 23 19 85 S9 30.36F VSB 3/4 WCI 13 WOOSTER LGT SNOW 22 19 89 S6 30.37F FOG WCI 14 MANSFIELD LGT SNOW 22 20 92 SE9 30.33F FOG WCI 12 YOUNGSTOWN LGT SNOW 22 19 89 S5 30.37F VSB 1 WCI 16 $$ OHZ042-051>053-060>062-070>072-077>081-111100- SOUTHWEST OHIO CITY SKY/WX TMP DP RH WIND PRES REMARKS CINC-COVINGTON CLOUDY 29 18 63 SE10 30.29F WCI 20 CINC-LUNKEN CLOUDY 30 20 66 CALM 30.34F HAMILTON CLOUDY 30 19 63 SE3 30.33F DAYTON CLOUDY 25 22 88 SE9 30.31S WCI 15 WRIGHT-PAT AFB CLOUDY 26 23 88 SE7 30.31F WCI 18 DAYTON GENERAL CLOUDY 28 19 69 SE9 30.30F WCI 19 WILMINGTON CLOUDY 26 18 71 SE7 30.30F WCI 18 $$ OHZ036-037-039>041-045>050-054>059-063>069-073>076-082>088-111100- CENTRAL AND SOUTHEAST OHIO CITY SKY/WX TMP DP RH WIND PRES REMARKS COLUMBUS LGT SNOW 24 24 100 SE7 30.35F FOG WCI 16 OSU AIRPORT LGT SNOW 24 23 96 SE8 30.34F FOG WCI 15 BOLTON FIELD CLOUDY 24 23 93 E8 30.33F WCI 16 RICKENBACK AFB LGT SNOW 25 23 95 E8 30.35F WCI 16 NEWARK LGT SNOW 24 22 91 SE5 30.37F FOG WCI 18 MARION LGT SNOW 24 21 88 SE10 30.33F FOG WCI 14 LANCASTER LGT SNOW 25 22 88 E5 30.37F FOG WCI 19 ZANESVILLE LGT SNOW 24 21 88 SE5 30.39S FOG WCI 18 NEW PHILLY LGT SNOW 23 21 92 SE5 30.41S FOG WCI 17 $$

USA.gov is the U.S. government's official web portal to all federal, state and local government web resources and services.